Location: Bretagne
(43.8474°N, 0.4650°W)
Time: 16:15:42
(UTC+00:00)

NOAA 6 - Pass Details

Date: 15 January 2026
Orbit: 767 x 780 km, 98.6° (Epoch: 18 February)

Event Time Altitude Azimuth Distance (km) Brightness Sun altitude
Rises 18:53:38 0° 169° (SSE) 3,224 7.2 -21.8°
Reaches altitude 10° 18:55:56 10° 170° (S) 2,303 6.5 -22.2°
Maximum altitude 19:01:01 77° 256° (WSW) 795 4.1 -23.1°
Drops below altitude 10° 19:06:09 10° 343° (NNW) 2,326 6.6 -24.1°
Sets 19:08:29 0° 345° (NNW) 3,260 7.4 -24.5°
